EW3721 Weather Reports


Display with metric or nautical units.
time (UTC)temp
F
wind
direction
speed
MPH
gust
MPH
rain 1hr
in
rain 24hr
in
rain mn
in
humidity
%
barometer
mb
20260902161604 73 185 3.0 9.0 0.00 0.21 0.01 66 1021.0
20260902161104 74 147 1.0 9.0 0.00 0.21 0.01 68 1021.1
20260902160604 74 177 1.0 6.0 0.00 0.21 0.01 68 1021.0
20260902160104 74 154 2.0 6.0 0.00 0.21 0.01 67 1021.1
20260902155604 74 181 3.0 6.0 0.00 0.21 0.01 68 1021.1
20260902155104 74 175 3.0 7.0 0.00 0.21 0.01 67 1021.2
20260902154604 74 181 0.0 2.0 0.00 0.21 0.01 74 1021.2
20260902154104 74 179 2.0 7.0 0.00 0.21 0.01 73 1021.4
20260902153604 73 254 0.0 2.0 0.00 0.21 0.01 69 1021.4
20260902153104 73 155 1.0 5.0 0.00 0.21 0.01 75 1021.5
20260902152604 72 157 1.0 3.0 0.00 0.21 0.01 77 1021.5
20260902152104 72 166 2.0 5.0 0.00 0.21 0.01 71 1021.5
20260902151604 71 193 1.0 3.0 0.00 0.21 0.01 75 1021.6
20260902151104 71 150 2.0 3.0 0.00 0.21 0.01 74 1021.7
20260902150604 71 178 0.0 3.0 0.00 0.21 0.01 77 1021.5
20260902145604 71 142 0.0 1.0 0.00 0.21 0.01 79 1021.6
20260902145104 70 142 0.0 0.0 0.00 0.21 0.01 82 1021.6
20260902144604 70 142 1.0 2.0 0.00 0.21 0.01 80 1021.6
20260902144104 70 142 0.0 1.0 0.00 0.21 0.01 82 1021.6
20260902143604 69 142 1.0 3.0 0.00 0.21 0.01 79 1021.4
20260902143104 69 142 1.0 2.0 0.00 0.21 0.01 82 1021.5
20260902142605 69 142 0.0 3.0 0.00 0.21 0.01 81 1021.6
20260902142103 69 143 1.0 3.0 0.00 0.21 0.01 82 1021.6
20260902141604 68 144 2.0 3.0 0.00 0.22 0.01 85 1021.6
20260902140604 68 166 2.0 5.0 0.00 0.22 0.01 87 1021.5
20260902140104 67 231 1.0 2.0 0.00 0.22 0.01 86 1021.6
20260902135604 67 188 2.0 3.0 0.00 0.23 0.01 87 1021.5
20260902134603 67 136 1.0 3.0 0.00 0.26 0.01 90 1021.3
20260902132607 66 157 3.0 6.0 0.00 0.29 0.01 92 1021.1
20260902132103 65 167 1.0 3.0 0.00 0.29 0.01 94 1021.2
20260902131104 65 196 2.0 5.0 0.00 0.30 0.01 95 1021.1
20260902130604 65 210 2.0 3.0 0.00 0.30 0.01 95 1021.1
20260902125604 64 146 1.0 3.0 0.00 0.30 0.01 96 1020.9
20260902125104 64 233 1.0 3.0 0.00 0.30 0.01 96 1020.8
20260902124604 64 216 2.0 5.0 0.00 0.30 0.01 96 1020.8
20260902124104 63 143 2.0 5.0 0.00 0.30 0.01 96 1020.6
20260902123604 63 185 2.0 8.0 0.00 0.30 0.01 97 1020.7
20260902123104 63 177 2.0 3.0 0.00 0.30 0.01 96 1020.9
20260902122104 63 231 0.0 3.0 0.00 0.30 0.01 97 1021.1
20260902121604 63 165 1.0 3.0 0.00 0.30 0.01 97 1021.2
20260902121104 63 139 1.0 3.0 0.00 0.30 0.01 97 1021.1
20260902120604 63 244 0.0 2.0 0.00 0.30 0.01 97 1021.1
20260902120104 63 242 0.0 2.0 0.00 0.30 0.01 97 1021.2
20260902115103 62 238 1.0 3.0 0.00 0.30 0.01 97 1021.2
20260902114604 62 238 1.0 2.0 0.00 0.30 0.01 97 1021.3
20260902114104 62 238 1.0 2.0 0.00 0.30 0.01 97 1021.2
20260902113604 62 229 2.0 3.0 0.00 0.30 0.01 97 1021.3
20260902113104 62 149 1.0 2.0 0.00 0.30 0.01 97 1021.3
20260902112603 62 237 1.0 3.0 0.00 0.30 0.01 97 1021.3
20260902112104 62 244 1.0 3.0 0.00 0.30 0.01 97 1021.3
20260902111604 62 250 1.0 3.0 0.00 0.30 0.01 97 1021.2
20260902111104 62 139 1.0 3.0 0.00 0.30 0.01 97 1021.0
20260902110107 62 144 0.0 2.0 0.00 0.31 0.01 97 1021.0
20260902105607 62 144 0.0 5.0 0.00 0.31 0.01 97 1021.1
20260902105107 62 239 0.0 2.0 0.00 0.31 0.01 97 1021.0
20260902104107 62 243 2.0 5.0 0.00 0.31 0.01 97 1020.9
20260902103607 62 250 1.0 5.0 0.00 0.31 0.01 97 1020.7
20260902103107 62 240 1.0 3.0 0.00 0.31 0.01 97 1020.6
20260902102107 62 240 2.0 3.0 0.00 0.31 0.01 97 1020.7
20260902101607 62 245 0.0 2.0 0.00 0.31 0.01 97 1020.7
20260902100607 62 240 1.0 3.0 0.00 0.31 0.01 97 1020.6
20260902100107 62 240 1.0 3.0 0.00 0.31 0.01 97 1020.7
20260902095606 62 247 1.0 3.0 0.00 0.31 0.01 97 1020.5
20260902094607 62 250 0.0 2.0 0.00 0.31 0.01 97 1020.4
20260902094107 62 240 1.0 2.0 0.00 0.31 0.01 97 1020.3
20260902093607 62 240 1.0 2.0 0.00 0.31 0.01 97 1020.3
20260902093107 62 240 0.0 2.0 0.00 0.31 0.01 97 1020.3
20260902092607 62 240 1.0 2.0 0.00 0.31 0.01 97 1020.2
20260902092106 62 240 2.0 3.0 0.00 0.31 0.01 97 1020.1
20260902091607 62 246 1.0 3.0 0.00 0.31 0.01 97 1020.1
20260902091107 62 248 1.0 2.0 0.00 0.31 0.01 97 1020.0
20260902090107 62 243 1.0 3.0 0.00 0.32 0.01 97 1020.0
20260902085606 62 240 1.0 2.0 0.00 0.32 0.01 97 1020.0
20260902085107 62 240 1.0 1.0 0.00 0.32 0.01 97 1020.0
20260902084107 62 239 1.0 2.0 0.00 0.32 0.01 97 1020.0
20260902083106 62 244 0.0 2.0 0.00 0.33 0.01 97 1020.0
20260902082607 62 244 0.0 2.0 0.00 0.33 0.01 97 1019.9
20260902082107 62 248 1.0 2.0 0.00 0.33 0.01 97 1019.9
20260902081606 62 159 1.0 3.0 0.00 0.34 0.01 97 1019.8
20260902080607 62 356 1.0 3.0 0.00 0.35 0.01 97 1019.6
20260902075607 62 221 0.0 3.0 0.00 0.37 0.01 97 1019.7
20260902075107 62 221 1.0 2.0 0.00 0.38 0.01 97 1019.7
20260902074606 62 221 0.0 1.0 0.00 0.38 0.01 97 1019.7
20260902074107 62 221 0.0 2.0 0.00 0.39 0.01 97 1019.7
20260902073607 62 164 2.0 3.0 0.00 0.40 0.01 97 1019.7
20260902073107 62 245 1.0 3.0 0.00 0.40 0.01 97 1019.7
20260902072606 62 145 1.0 5.0 0.00 0.40 0.01 97 1019.7
20260902072106 62 90 2.0 5.0 0.00 0.40 0.01 97 1019.6
20260902071607 62 241 1.0 3.0 0.00 0.40 0.01 97 1019.5
20260902070607 62 240 2.0 3.0 0.00 0.42 0.01 97 1019.6
20260902070107 62 240 1.0 3.0 0.00 0.43 0.01 97 1019.5
20260902065606 62 252 1.0 3.0 0.00 0.46 0.01 97 1019.6
20260902065106 62 0 1.0 3.0 0.00 0.49 0.01 97 1019.5
20260902064607 62 244 1.0 3.0 0.00 0.50 0.01 97 1019.4
20260902064106 62 140 1.0 6.0 0.00 0.50 0.01 97 1019.4
20260902063607 62 250 1.0 3.0 0.00 0.50 0.01 97 1019.5
20260902063107 62 250 2.0 3.0 0.00 0.51 0.01 97 1019.5
20260902062607 62 252 1.0 2.0 0.00 0.51 0.01 97 1019.5
20260902062107 62 251 1.0 2.0 0.00 0.53 0.01 97 1019.5
20260902061606 62 251 1.0 2.0 0.00 0.54 0.01 97 1019.4
20260902061106 62 251 0.0 2.0 0.00 0.54 0.01 97 1019.4
20260902060106 62 250 2.0 3.0 0.00 0.55 0.01 97 1019.5
20260902055606 62 248 1.0 3.0 0.00 0.55 0.01 97 1019.5
20260902055106 62 246 0.0 3.0 0.00 0.55 0.01 97 1019.7
20260902054607 62 250 1.0 2.0 0.00 0.55 0.01 97 1019.8
20260902054107 62 248 2.0 3.0 0.00 0.55 0.01 97 1019.7
20260902053607 63 239 1.0 3.0 0.01 0.55 0.01 97 1019.7
20260902053106 63 246 1.0 2.0 0.01 0.55 0.01 97 1019.7
20260902052607 63 240 2.0 3.0 0.01 0.55 0.01 97 1019.7
20260902052106 63 242 2.0 3.0 0.01 0.55 0.01 97 1019.7
20260902051106 63 233 1.0 2.0 0.01 0.55 0.01 97 1019.6
20260902050606 63 229 1.0 3.0 0.01 0.55 0.01 97 1019.6
20260902050107 63 226 1.0 2.0 0.01 0.55 0.01 97 1019.4
20260902045606 63 226 1.0 2.0 0.01 0.55 0.01 97 1019.5
20260902045106 63 225 0.0 1.0 0.01 0.55 0.01 97 1019.4
20260902044606 63 225 0.0 2.0 0.01 0.55 0.01 97 1019.4
20260902044106 63 225 1.0 2.0 0.01 0.55 0.01 96 1019.3
20260902043607 63 225 1.0 3.0 0.00 0.54 0.00 96 1019.3
20260902043106 63 236 1.0 3.0 0.00 0.54 0.00 96 1019.2
20260902042606 63 243 1.0 3.0 0.00 0.54 0.00 97 1019.3
20260902041607 63 240 0.0 2.0 0.00 0.54 0.00 97 1019.2
20260902040607 63 141 0.0 1.0 0.00 0.54 0.00 96 1019.3
20260902035607 62 140 0.0 2.0 0.00 0.54 0.54 97 1019.3
20260902035106 63 140 0.0 2.0 0.00 0.54 0.54 96 1019.2
20260902034607 63 140 0.0 2.0 0.00 0.54 0.54 97 1019.1
20260902034106 63 141 0.0 2.0 0.00 0.54 0.54 96 1019.0
20260902033607 63 141 0.0 2.0 0.00 0.54 0.54 96 1018.7
20260902033107 63 145 1.0 3.0 0.00 0.54 0.54 96 1018.8
20260902032606 63 140 1.0 3.0 0.00 0.54 0.54 96 1018.7
20260902032106 63 229 0.0 2.0 0.00 0.54 0.54 96 1018.9
20260902031107 63 162 2.0 3.0 0.00 0.54 0.54 96 1018.7
20260902030107 63 141 0.0 3.0 0.00 0.54 0.54 96 1018.9
20260902025607 63 141 0.0 3.0 0.00 0.54 0.54 96 1018.9
20260902025106 63 234 1.0 3.0 0.00 0.54 0.54 96 1018.8
20260902024606 63 178 0.0 2.0 0.00 0.54 0.54 96 1018.6
20260902024107 63 249 0.0 3.0 0.00 0.54 0.54 96 1018.6
20260902023607 63 248 1.0 3.0 0.00 0.54 0.54 96 1018.6
20260902023106 63 248 1.0 2.0 0.00 0.54 0.54 96 1018.4
20260902022607 63 248 0.0 1.0 0.00 0.54 0.54 96 1018.5
20260902022106 63 248 0.0 1.0 0.00 0.54 0.54 96 1018.5
20260902021606 63 248 0.0 1.0 0.00 0.54 0.54 96 1018.6
20260902020106 63 234 0.0 2.0 0.00 0.54 0.54 96 1018.5
20260902014106 63 143 1.0 2.0 0.00 0.54 0.54 96 1018.2
20260902013606 63 143 0.0 2.0 0.00 0.54 0.54 96 1018.2
20260902013106 63 143 1.0 2.0 0.00 0.54 0.54 96 1017.9
20260902012106 63 244 1.0 3.0 0.00 0.54 0.54 96 1018.0
20260902011606 63 244 1.0 3.0 0.00 0.54 0.54 96 1017.9
20260902011106 63 182 1.0 5.0 0.00 0.54 0.54 96 1017.8
20260902010607 63 162 1.0 3.0 0.00 0.54 0.54 96 1017.6
20260902010106 63 176 2.0 6.0 0.00 0.54 0.54 96 1017.6
20260902005606 63 158 1.0 3.0 0.00 0.54 0.54 96 1017.9
20260902004606 63 240 1.0 3.0 0.00 0.54 0.54 96 1017.9
20260902004106 63 246 1.0 2.0 0.00 0.54 0.54 96 1017.8
20260902001606 63 172 3.0 7.0 0.01 0.54 0.54 95 1017.4
20260902001107 63 226 1.0 3.0 0.01 0.54 0.54 95 1017.7
20260902000606 63 182 3.0 8.0 0.02 0.54 0.54 95 1017.5
20260902000106 63 137 2.0 3.0 0.02 0.54 0.54 95 1017.5
20260901235606 64 200 1.0 3.0 0.04 0.54 0.54 95 1017.3
20260901235106 64 187 3.0 5.0 0.07 0.54 0.54 95 1017.4
20260901234606 64 161 1.0 3.0 0.15 0.54 0.54 95 1017.2
20260901233606 64 188 1.0 3.0 0.18 0.53 0.53 95 1017.2
20260901232106 64 174 1.0 7.0 0.18 0.53 0.53 95 1017.4
20260901231135 64 170 1.0 3.0 0.18 0.53 0.53 94 1017.2
20260901230606 64 177 1.0 3.0 0.18 0.53 0.53 94 1017.2
20260901230106 65 240 1.0 3.0 0.17 0.52 0.52 94 1017.2
20260901225606 65 254 1.0 3.0 0.16 0.51 0.51 94 1017.2
20260901225106 65 180 2.0 5.0 0.13 0.48 0.48 94 1016.9
20260901224606 65 192 2.0 5.0 0.07 0.42 0.42 94 1017.0
20260901223606 65 136 2.0 3.0 0.00 0.35 0.35 94 1016.9
20260901223107 66 161 2.0 5.0 0.00 0.35 0.35 94 1016.8
20260901222606 66 147 2.0 5.0 0.00 0.35 0.35 94 1016.6
20260901222107 66 219 1.0 7.0 0.00 0.35 0.35 94 1016.7
20260901220606 66 191 1.0 8.0 0.00 0.35 0.35 94 1016.5
20260901220106 66 166 1.0 8.0 0.00 0.35 0.35 94 1016.4
20260901215106 66 174 2.0 6.0 0.00 0.35 0.35 94 1016.3
20260901214606 66 142 2.0 8.0 0.00 0.35 0.35 94 1016.4
20260901214106 66 161 4.0 8.0 0.00 0.35 0.35 94 1016.4
20260901213606 67 220 2.0 6.0 0.00 0.35 0.35 94 1016.5
20260901212606 67 167 2.0 6.0 0.00 0.35 0.35 95 1016.3
20260901212106 67 155 5.0 8.0 0.00 0.35 0.35 94 1016.2
20260901211606 67 149 1.0 7.0 0.00 0.35 0.35 94 1016.2
20260901210605 67 154 3.0 6.0 0.00 0.35 0.35 94 1016.2
20260901210106 67 180 3.0 6.0 0.00 0.35 0.35 94 1016.1
20260901205106 68 172 2.0 9.0 0.00 0.35 0.35 94 1015.9
20260901204606 68 183 4.0 9.0 0.00 0.35 0.35 94 1015.9
20260901204106 68 168 3.0 8.0 0.00 0.35 0.35 94 1015.8
20260901203606 69 177 2.0 6.0 0.00 0.35 0.35 94 1015.8
20260901203106 69 190 3.0 6.0 0.00 0.35 0.35 94 1015.7
20260901202605 69 158 1.0 5.0 0.00 0.35 0.35 94 1015.7
20260901202106 69 183 3.0 9.0 0.00 0.35 0.35 94 1015.6
20260901201606 69 151 4.0 9.0 0.00 0.35 0.35 94 1015.7
20260901201106 70 160 2.0 7.0 0.00 0.35 0.35 94 1015.5
20260901200606 70 159 2.0 3.0 0.00 0.35 0.35 94 1015.6
20260901195106 71 176 1.0 3.0 0.00 0.35 0.35 93 1015.5
20260901194606 71 169 0.0 3.0 0.00 0.35 0.35 94 1015.4
20260901194108 71 164 0.0 5.0 0.00 0.35 0.35 94 1015.4
20260901193605 71 181 1.0 6.0 0.00 0.35 0.35 93 1015.4
20260901193106 72 173 3.0 10.0 0.00 0.35 0.35 93 1015.3
20260901192606 72 153 4.0 12.0 0.00 0.35 0.35 94 1015.3
20260901192106 73 164 4.0 14.0 0.00 0.35 0.35 95 1015.2
20260901191606 74 204 1.0 3.0 0.00 0.35 0.35 96 1015.0
20260901191106 74 220 0.0 2.0 0.00 0.35 0.35 96 1015.0
20260901190606 74 220 0.0 2.0 0.01 0.35 0.35 96 1015.0
20260901190106 74 220 1.0 2.0 0.01 0.35 0.35 96 1014.9
20260901185606 74 192 0.0 1.0 0.01 0.35 0.35 96 1014.9
20260901185106 74 192 0.0 2.0 0.01 0.35 0.35 96 1015.0
20260901184605 74 192 0.0 0.0 0.01 0.35 0.35 96 1015.0
20260901184106 73 192 0.0 0.0 0.01 0.35 0.35 96 1015.0
20260901183106 73 192 0.0 2.0 0.01 0.35 0.35 96 1015.0
20260901182605 73 221 0.0 1.0 0.01 0.35 0.35 96 1015.0
20260901182106 73 167 0.0 1.0 0.01 0.35 0.35 96 1015.1
20260901181606 73 168 2.0 5.0 0.01 0.35 0.35 96 1015.1
20260901181106 73 163 0.0 3.0 0.01 0.35 0.35 96 1015.2
20260901180606 73 159 1.0 5.0 0.00 0.34 0.34 96 1015.2
20260901180106 73 161 2.0 3.0 0.00 0.34 0.34 96 1015.3
20260901175606 73 161 1.0 3.0 0.00 0.34 0.34 96 1015.2
20260901175107 73 161 1.0 2.0 0.00 0.34 0.34 96 1015.2
20260901174605 73 161 2.0 3.0 0.00 0.34 0.34 96 1015.1
20260901174105 74 142 1.0 3.0 0.00 0.34 0.34 97 1015.2
20260901173605 74 140 0.0 3.0 0.00 0.34 0.34 97 1015.2
20260901173106 74 140 1.0 2.0 0.00 0.34 0.34 97 1015.1
20260901172606 73 184 1.0 2.0 0.00 0.34 0.34 97 1015.1
20260901171106 73 196 0.0 1.0 0.00 0.34 0.34 97 1015.0
20260901170606 72 196 1.0 2.0 0.00 0.34 0.34 97 1015.1
20260901170106 72 196 1.0 2.0 0.00 0.34 0.34 97 1015.2
20260901165606 73 196 0.0 1.0 0.00 0.34 0.34 97 1015.2
20260901165106 72 196 0.0 2.0 0.00 0.34 0.34 97 1015.3
20260901164606 73 216 1.0 3.0 0.00 0.34 0.34 97 1015.5
20260901164105 73 186 1.0 3.0 0.00 0.34 0.34 97 1015.5
20260901163605 72 185 0.0 2.0 0.00 0.34 0.34 97 1015.5
20260901163106 72 207 0.0 2.0 0.00 0.34 0.34 97 1015.4
20260901162606 72 189 0.0 1.0 0.00 0.34 0.34 97 1015.5
20260901162106 72 189 0.0 1.0 0.00 0.34 0.34 97 1015.7